DELTA 1 DEB, 13561

Orbit data source: Space-Track

DELTA 1 DEB, 13561 is space debris in SSO originally from a launch on Sun, 05 Mar 1978 UTC launched from the Air Force Western Test Range (AFWTR). Debris objects in space refer to the collection of defunct objects orbiting the Earth. Examples of debris include non-operational satellites, rocket bodies, and fragments generated from explosions, collisions, or faulty payload assembly.

Loading next visibility...
Identifier
13561, 1978-026EY
Orbit
SSO
Country
Flag of USUS
Related business
Manufacturer
Unknown
Mission
Spacecraft
Bus & Motor
Unknown
Mass
Unknown
Launch date (UTC)
1978-03-05 (48 years ago)
Launch vehicle
Unknown
Launch site
Air Force Western Test Range (AFWTR)
Object type
Payload
Rocket body
Debris
Shape & HBR
Unknown shape, 0.1 m
Radar Cross Section
Medium (>0.1 m² and <1 m²)

Expand to show TLE details & history
Last TLE update: 3 days ago

TLE from 3 days ago
0 DELTA 1 DEB
1 13561U 78026EY  26171.11181556  .00003257  00000-0  10143-2 0  9992
2 13561  99.0011  48.3494 0117773 288.6507 228.5791 14.37768701297109
Epoch: 2026-06-20T02:41Z
TLE epoch observation values (Epoch: 2026-06-20T02:41:00.864Z)
Latitude
23.48373°
Longitude
-76.30985°
Altitude
824.959 km
Speed
7.413 km/s
True Right ascension
15h 29m 05s
True Declination
23° 21' 34"
Sunlit
Object was in full shadow at epoch
Visualization orbit readout
Latitude
Unknown
Longitude
Unknown
Altitude
Unknown
Speed
Unknown
Apparent Right ascension
Unknown
Apparent Declination
Unknown
Sunlit
N/A
Visualization observer readout
Local Sidereal Time
10:58:59
Azimuth
Unknown
Elevation
Unknown
Doppler factor
Unknown
Orbital elements
Apogee altitude
847.132 km
Perigee altitude
678.925 km
Semi-major axis
7,141.166 km
Eccentricity
0.01178
Inclination
99.0011°
RAAN
48.3494°
Arg. of periapsis
288.6507°
True anomaly
227.57691°
Mean anomaly
228.5791°
Eccentric anomaly
228.07703°
Mean motion
3.59658 °/min
Orbital period
100.1 mins
BSTAR
0.0010143
Loading maneuver chart data...
Computing Atmospheric mass density...
Loading historical data...
Loading historical data...
Loading historical data...
Loading historical data...
Loading historical data...
Loading historical data...
Loading historical data...

Documentation

Showing up to 5 results
|